Weather History for KVPZ - June, 2012

Change the Weather History Date:

Thursday, June 14, 2012

  Actual Average Record
Temperature  
Mean Temperature 69 °F 69 °F  
Max Temperature 87 °F 80 °F 91 °F (2007)
Min Temperature 50 °F 58 °F 50 °F (2012)
Degree Days  
Heating Degree Days 0 1  
Month to date heating degree days 33 32  
Since 1 June heating degree days 32  
Since 1 July heating degree days 6311  
Cooling Degree Days 4 5  
Month to date cooling degree days 43 57  
Year to date cooling degree days 194 104  
Since 1 June cooling degree days 57  
Growing Degree Days 18 (Base 50)    
Moisture  
Dew Point 44 °F    
Average Humidity 46    
Maximum Humidity 80    
Minimum Humidity 19    
Precipitation  
Precipitation 0.00 in 0.12 in 0.76 in (2004)
Month to date precipitation 0.20 1.86  
Year to date precipitation 9.97 14.84  
Sea Level Pressure  
Sea Level Pressure 30.11 in    
Wind  
Wind Speed 7 mph (ESE)    
Max Wind Speed 15 mph    
Max Gust Speed 22 mph    
Visibility 10 miles    
Events      
T = Trace of Precipitation, MM = Missing Value Source: NWS Daily Summary

Daily Weather History Graph

Daily Weather History Graph

Search for Another Location

Airport or City:

Trip Planner

Search our weather history database for the weather conditions in past years. The results will help you decide how hot, cold, wet, or windy it might be!

Date:

Astronomy

Jun. 14, 2012 Rise Set
Actual Time 5:13 AM CDT 8:23 PM CDT
Civil Twilight 4:39 AM CDT 8:57 PM CDT
Nautical Twilight 3:56 AM CDT 9:40 PM CDT
Astronomical Twilight 3:04 AM CDT 10:32 PM CDT
Moon 1:58 AM CDT (6/14) 4:04 PM CDT (6/14)
Length of Visible Light 16h 17m
Length of Day
15h 09m
Waning Crescent, 21% of the Moon is Illuminated
Jun 14
Waning Crescent
Jun 19
New
Jun 26
First Quarter
Jul 3
Full
Jul 10
Last Quarter

Hourly Weather History & Observations

Time (CDT) Temp. Dew Point Humidity Pressure Visibility Wind Dir Wind Speed Gust Speed Precip Events Conditions
12:53 AM 53.1 °F 46.0 °F 77% 30.11 in 10.0 mi ENE 4.6 mph - N/A   Clear
1:53 AM 52.0 °F 46.0 °F 80% 30.12 in 10.0 mi East 4.6 mph - N/A   Clear
2:53 AM 52.0 °F 46.0 °F 80% 30.13 in 10.0 mi ENE 5.8 mph - N/A   Clear
3:53 AM 51.1 °F 45.0 °F 80% 30.14 in 10.0 mi ENE 4.6 mph - N/A   Clear
4:53 AM 50.0 °F 44.1 °F 80% 30.16 in 10.0 mi East 5.8 mph - N/A   Clear
5:53 AM 51.1 °F 45.0 °F 80% 30.17 in 10.0 mi East 4.6 mph - N/A   Clear
6:53 AM 57.0 °F 46.9 °F 69% 30.17 in 10.0 mi ESE 8.1 mph - N/A   Clear
7:53 AM 63.0 °F 45.0 °F 52% 30.17 in 10.0 mi ESE 9.2 mph - N/A   Clear
8:53 AM 68.0 °F 45.0 °F 43% 30.17 in 10.0 mi SE 9.2 mph - N/A   Clear
9:53 AM 73.9 °F 46.0 °F 37% 30.15 in 10.0 mi SE 9.2 mph - N/A   Clear
10:53 AM 75.9 °F 46.0 °F 35% 30.15 in 10.0 mi SSE 8.1 mph - N/A   Clear
11:53 AM 79.0 °F 46.0 °F 31% 30.12 in 10.0 mi SE 10.4 mph 17.3 mph N/A   Clear
12:53 PM 82.0 °F 44.1 °F 26% 30.12 in 10.0 mi ESE 11.5 mph 16.1 mph N/A   Clear
1:53 PM 82.9 °F 39.0 °F 21% 30.11 in 10.0 mi SE 9.2 mph - N/A   Clear
2:53 PM 86.0 °F 41.0 °F 20% 30.11 in 10.0 mi SSE 8.1 mph 21.9 mph N/A   Clear
3:53 PM 86.0 °F 39.0 °F 19% 30.09 in 10.0 mi SE 9.2 mph 16.1 mph N/A   Clear
4:53 PM 84.9 °F 39.9 °F 20% 30.07 in 10.0 mi SE 10.4 mph - N/A   Clear
6:53 PM 84.0 °F 42.1 °F 23% 30.06 in 10.0 mi SE 8.1 mph - N/A   Clear
7:53 PM 79.0 °F 42.1 °F 27% 30.04 in 10.0 mi SE 4.6 mph - N/A   Clear
8:53 PM 75.9 °F 42.1 °F 30% 30.05 in 10.0 mi ESE 3.5 mph - N/A   Clear
9:53 PM 71.1 °F 43.0 °F 36% 30.04 in 10.0 mi ESE 5.8 mph - N/A   Clear
10:53 PM 64.9 °F 45.0 °F 48% 30.06 in 10.0 mi ENE 4.6 mph - N/A   Clear
11:53 PM 64.9 °F 43.0 °F 45% 30.08 in 10.0 mi East 3.5 mph - N/A   Clear